Location: Aldenham
(51.6667°N, 0.3500°W)
Time: 17:05:41
(UTC+00:00)

CZ-4C R/B - Pass Details

Date: 18 November 2025
Orbit: 487 x 1493 km, 63.4° (Epoch: 12 December)

Event Time Altitude Azimuth Distance (km) Brightness Sun altitude
Rises 18:43:28 0° 288° (WNW) 3,119 6.3 -23.8°
Reaches altitude 10° 18:45:57 10° 301° (WNW) 2,342 5.3 -24.2°
Maximum altitude 18:50:36 28° 360° (N) 1,676 3.7 -24.9°
Enters shadow 18:52:07 25° 23° (NNE) 1,844 3.7 -25.2°
